Tracking 35334 objects as of 13-Sep-2026
HD Live streaming from Space Station
objects crossing your sky now

AETHER-5

Track AETHER-5 now!
10-day predictions


NORAD ID: 67376
Int'l Code: 2026-004P
Launch date: January 11, 2026
Source: Canada (CA)
Launch site: AIR FORCE WESTERN TEST RANGE (AFWTR)
Your satellite tracking list
Your tracking list is empty




NASA's NSSDC Master Catalog

Two Line Element Set (TLE):
1 67376U 26004P   26256.00944459  .00000415  00000-0  53814-4 0  9992
2 67376  97.8098 252.9659 0000655 145.3162 214.8096 14.85806855 36333
Source of the keplerian elements: AFSPC